20040726,000002,1131858,33.307833,-124.266000,18.620,32.725,NaN,NaN
20040726,000032,1131888,33.309000,-124.266833,18.642,32.732,NaN,NaN
20040726,000102,1131918,33.310167,-124.267667,18.661,32.738,NaN,NaN
20040726,000132,1131948,33.311333,-124.268333,18.670,32.742,NaN,NaN
20040726,000202,1131978,33.312333,-124.269167,18.681,32.746,NaN,NaN
20040726,000232,1132008,33.313500,-124.270000,18.685,32.748,NaN,NaN
20040726,000302,1132038,33.314667,-124.270833,18.691,32.746,NaN,NaN
20040726,000332,1132068,33.315833,-124.271667,18.690,32.747,NaN,NaN
20040726,000402,1132098,33.317000,-124.272500,18.691,32.748,NaN,NaN
20040726,000432,1132128,33.318167,-124.273167,18.694,32.749,NaN,NaN
20040726,000502,1132158,33.319333,-124.274000,18.700,32.751,NaN,NaN
20040726,000532,1132188,33.320500,-124.274833,18.703,32.753,NaN,NaN
20040726,000602,1132218,33.321500,-124.275667,18.705,32.755,NaN,NaN
20040726,000632,1132248,33.322667,-124.276500,18.714,32.757,NaN,NaN
20040726,000702,1132278,33.323833,-124.277333,18.727,32.760,NaN,NaN
20040726,000732,1132308,33.325000,-124.278167,18.734,32.764,NaN,NaN
20040726,000802,1132338,33.326167,-124.279000,18.739,32.765,NaN,NaN
20040726,000832,1132368,33.327333,-124.279667,18.741,32.766,NaN,NaN
20040726,000902,1132398,33.328500,-124.280500,18.748,32.768,NaN,NaN
20040726,000932,1132428,33.329667,-124.281333,18.754,32.769,NaN,NaN
20040726,001002,1132458,33.330833,-124.282167,18.761,32.770,NaN,NaN
20040726,001032,1132488,33.332000,-124.282833,18.763,32.771,NaN,NaN
20040726,001102,1132518,33.333167,-124.283667,18.764,32.773,NaN,NaN
20040726,001132,1132548,33.334333,-124.284500,18.761,32.774,NaN,NaN
20040726,001202,1132578,33.335333,-124.285333,18.763,32.776,NaN,NaN
20040726,001232,1132608,33.336500,-124.286167,18.763,32.781,NaN,NaN
20040726,001302,1132638,33.337667,-124.287000,18.757,32.784,NaN,NaN
20040726,001332,1132668,33.338833,-124.287833,18.752,32.784,NaN,NaN
20040726,001402,1132698,33.340000,-124.288667,18.751,32.786,NaN,NaN
20040726,001432,1132728,33.341167,-124.289500,18.751,32.787,NaN,NaN
20040726,001502,1132758,33.342333,-124.290333,18.751,32.789,NaN,NaN
20040726,001532,1132788,33.343500,-124.291167,18.750,32.790,NaN,NaN
20040726,001602,1132818,33.344667,-124.292000,18.748,32.793,NaN,NaN
20040726,001632,1132848,33.345833,-124.292667,18.745,32.795,NaN,NaN
20040726,001702,1132878,33.347000,-124.293500,18.740,32.797,NaN,NaN
20040726,001732,1132908,33.348167,-124.294333,18.737,32.800,NaN,NaN
20040726,001802,1132938,33.349333,-124.295167,18.734,32.802,NaN,NaN
20040726,001832,1132968,33.350500,-124.296000,18.730,32.803,NaN,NaN
20040726,001902,1132998,33.351500,-124.296667,18.731,32.805,NaN,NaN
20040726,001932,1133028,33.352667,-124.297500,18.736,32.807,NaN,NaN
20040726,002002,1133058,33.353833,-124.298333,18.740,32.808,NaN,NaN
20040726,002032,1133088,33.355000,-124.299167,18.746,32.809,NaN,NaN
20040726,002102,1133118,33.356167,-124.299833,18.750,32.810,NaN,NaN
20040726,002132,1133148,33.357333,-124.300667,18.753,32.811,NaN,NaN
20040726,002202,1133178,33.358500,-124.301500,18.754,32.813,NaN,NaN
20040726,002232,1133208,33.359667,-124.302333,18.759,32.816,NaN,NaN
20040726,002302,1133238,33.360833,-124.303167,18.767,32.821,NaN,NaN
20040726,002332,1133268,33.362000,-124.303833,18.774,32.823,NaN,NaN
20040726,002402,1133298,33.363000,-124.304667,18.776,32.826,NaN,NaN
20040726,002432,1133328,33.364167,-124.305500,18.774,32.828,NaN,NaN
20040726,002502,1133358,33.365500,-124.306333,18.774,32.829,NaN,NaN
20040726,002532,1133388,33.366667,-124.307167,18.775,32.832,NaN,NaN
20040726,002602,1133418,33.367833,-124.308000,18.774,32.834,NaN,NaN
20040726,002632,1133448,33.369000,-124.308833,18.774,32.837,NaN,NaN
20040726,002702,1133478,33.370000,-124.309667,18.771,32.840,NaN,NaN
20040726,002732,1133508,33.371167,-124.310500,18.766,32.841,NaN,NaN
20040726,002802,1133538,33.372333,-124.311167,18.757,32.843,NaN,NaN
20040726,002832,1133568,33.373500,-124.312000,18.748,32.845,NaN,NaN
20040726,002902,1133598,33.374667,-124.312833,18.739,32.846,NaN,NaN
20040726,002932,1133628,33.375833,-124.313667,18.739,32.849,NaN,NaN
20040726,003002,1133658,33.376833,-124.314500,18.739,32.851,NaN,NaN
20040726,003032,1133688,33.378000,-124.315333,18.738,32.852,NaN,NaN
20040726,003102,1133718,33.379167,-124.316167,18.736,32.853,NaN,NaN
20040726,003132,1133748,33.380333,-124.316833,18.736,32.853,NaN,NaN
20040726,003202,1133778,33.381500,-124.317667,18.736,32.852,NaN,NaN
20040726,003232,1133808,33.382667,-124.318500,18.736,32.849,NaN,NaN
20040726,003302,1133838,33.383833,-124.319333,18.737,32.849,NaN,NaN
20040726,003332,1133868,33.384833,-124.320167,18.737,32.850,NaN,NaN
20040726,003402,1133898,33.385833,-124.321000,18.739,32.850,NaN,NaN
20040726,003432,1133928,33.386667,-124.321667,18.737,32.850,NaN,NaN
20040726,003502,1133958,33.387167,-124.322167,18.737,32.850,NaN,NaN
20040726,003532,1133988,33.387667,-124.322500,18.734,32.851,NaN,NaN
20040726,003602,1134018,33.388000,-124.322833,18.733,32.851,NaN,NaN
20040726,003632,1134048,33.388167,-124.323167,18.733,32.851,NaN,NaN
20040726,003702,1134078,33.388500,-124.323500,18.732,32.851,NaN,NaN
20040726,003732,1134108,33.388667,-124.323667,18.733,32.851,NaN,NaN
20040726,003802,1134138,33.388833,-124.324000,18.731,32.851,NaN,NaN
20040726,003832,1134168,33.389000,-124.324167,18.731,32.851,NaN,NaN
20040726,003902,1134198,33.389000,-124.324333,18.731,32.851,NaN,NaN
20040726,003932,1134228,33.389167,-124.324333,18.732,32.851,NaN,NaN
20040726,004002,1134258,33.389167,-124.324333,18.732,32.851,NaN,NaN
20040726,004032,1134288,33.389167,-124.324500,18.731,32.852,NaN,NaN
20040726,004102,1134318,33.389333,-124.324500,18.733,32.852,NaN,NaN
20040726,004132,1134348,33.389333,-124.324500,18.734,32.852,NaN,NaN
20040726,004202,1134378,33.389333,-124.324500,18.733,32.852,NaN,NaN
20040726,004232,1134408,33.389333,-124.324500,18.733,32.853,NaN,NaN
20040726,004302,1134438,33.389333,-124.324500,18.733,32.852,NaN,NaN
20040726,004332,1134468,33.389333,-124.324500,18.732,32.852,NaN,NaN
20040726,004402,1134498,33.389333,-124.324500,18.734,32.852,NaN,NaN
20040726,004432,1134528,33.389333,-124.324500,18.735,32.852,NaN,NaN
20040726,004502,1134558,33.389167,-124.324333,18.736,32.852,NaN,NaN
20040726,004532,1134588,33.389167,-124.324333,18.736,32.853,NaN,NaN
20040726,004602,1134618,33.389167,-124.324333,18.736,32.852,NaN,NaN
20040726,004632,1134648,33.389000,-124.324333,18.736,32.853,NaN,NaN
20040726,004702,1134678,33.389000,-124.324333,18.736,32.853,NaN,NaN
20040726,004732,1134708,33.389000,-124.324167,18.737,32.853,NaN,NaN
20040726,004802,1134738,33.389000,-124.324167,18.738,32.853,NaN,NaN
20040726,004832,1134768,33.388833,-124.324000,18.737,32.854,NaN,NaN
20040726,004902,1134798,33.388833,-124.324000,18.736,32.854,NaN,NaN
20040726,004932,1134828,33.388833,-124.324000,18.737,32.853,NaN,NaN
20040726,005002,1134858,33.388833,-124.323833,18.736,32.853,NaN,NaN
20040726,005032,1134888,33.388833,-124.323833,18.734,32.854,NaN,NaN
20040726,005102,1134918,33.388667,-124.323833,18.734,32.854,NaN,NaN
20040726,005132,1134948,33.388667,-124.323833,18.733,32.854,NaN,NaN
20040726,005202,1134978,33.388667,-124.323667,18.733,32.854,NaN,NaN
20040726,005232,1135008,33.388667,-124.323667,18.732,32.855,NaN,NaN
20040726,005302,1135038,33.388667,-124.323667,18.732,32.854,NaN,NaN
20040726,005332,1135068,33.388667,-124.323500,18.733,32.854,NaN,NaN
20040726,005402,1135098,33.388500,-124.323500,18.733,32.854,NaN,NaN
20040726,005432,1135128,33.388500,-124.323500,18.734,32.853,NaN,NaN
20040726,005502,1135158,33.388500,-124.323500,18.735,32.854,NaN,NaN
20040726,005532,1135188,33.388333,-124.323500,18.734,32.854,NaN,NaN
20040726,005602,1135218,33.388333,-124.323333,18.734,32.854,NaN,NaN
20040726,005632,1135248,33.388333,-124.323333,18.736,32.854,NaN,NaN
20040726,005702,1135278,33.388167,-124.323333,18.737,32.854,NaN,NaN
20040726,005732,1135308,33.388167,-124.323167,18.736,32.855,NaN,NaN
20040726,005802,1135338,33.388167,-124.323167,18.734,32.854,NaN,NaN
20040726,005832,1135368,33.388167,-124.323167,18.733,32.855,NaN,NaN
20040726,005902,1135398,33.388167,-124.323167,18.736,32.855,NaN,NaN
20040726,005932,1135428,33.388167,-124.323167,18.737,32.855,NaN,NaN
20040726,010002,1135458,33.388167,-124.323167,18.738,32.854,NaN,NaN
20040726,010032,1135488,33.388167,-124.323167,18.738,32.855,NaN,NaN
20040726,010102,1135518,33.388167,-124.323000,18.738,32.855,NaN,NaN
20040726,010132,1135548,33.388167,-124.323000,18.737,32.855,NaN,NaN
20040726,010202,1135578,33.388167,-124.323000,18.738,32.855,NaN,NaN
20040726,010232,1135608,33.388167,-124.323000,18.739,32.855,NaN,NaN
20040726,010302,1135638,33.388167,-124.323000,18.741,32.855,NaN,NaN
20040726,010332,1135668,33.388000,-124.322833,18.742,32.855,NaN,NaN
20040726,010402,1135698,33.388000,-124.322833,18.741,32.856,NaN,NaN
20040726,010432,1135728,33.388000,-124.322833,18.740,32.856,NaN,NaN
20040726,010502,1135758,33.388000,-124.322833,18.740,32.855,NaN,NaN
20040726,010532,1135788,33.387833,-124.322667,18.739,32.855,NaN,NaN
20040726,010602,1135818,33.387833,-124.322667,18.738,32.855,NaN,NaN
20040726,010632,1135848,33.387833,-124.322667,18.739,32.855,NaN,NaN
20040726,010702,1135878,33.387667,-124.322500,18.740,32.855,NaN,NaN
20040726,010732,1135908,33.387667,-124.322500,18.740,32.855,NaN,NaN
20040726,010802,1135938,33.387667,-124.322500,18.739,32.855,NaN,NaN
20040726,010832,1135968,33.387667,-124.322333,18.739,32.855,NaN,NaN
20040726,010902,1135998,33.387500,-124.322333,18.740,32.855,NaN,NaN
20040726,010932,1136028,33.387500,-124.322333,18.741,32.856,NaN,NaN
20040726,011002,1136058,33.387500,-124.322333,18.741,32.855,NaN,NaN
20040726,011032,1136088,33.387500,-124.322333,18.741,32.855,NaN,NaN
20040726,011102,1136118,33.387500,-124.322167,18.740,32.856,NaN,NaN
20040726,011132,1136148,33.387333,-124.322167,18.738,32.855,NaN,NaN
20040726,011202,1136178,33.387333,-124.322167,18.739,32.855,NaN,NaN
20040726,011232,1136208,33.387333,-124.322167,18.738,32.856,NaN,NaN
20040726,011302,1136238,33.387167,-124.322000,18.736,32.855,NaN,NaN
20040726,011332,1136268,33.387167,-124.322000,18.734,32.855,NaN,NaN
20040726,011402,1136298,33.387167,-124.322000,18.734,32.855,NaN,NaN
20040726,011432,1136328,33.387167,-124.322000,18.733,32.856,NaN,NaN
20040726,011502,1136358,33.387000,-124.322000,18.733,32.855,NaN,NaN
20040726,011532,1136388,33.387000,-124.321833,18.733,32.855,NaN,NaN
20040726,011602,1136418,33.387000,-124.321833,18.731,32.856,NaN,NaN
20040726,011632,1136448,33.387000,-124.321833,18.731,32.855,NaN,NaN
20040726,011702,1136478,33.386833,-124.321833,18.731,32.855,NaN,NaN
20040726,011732,1136508,33.386833,-124.321833,18.731,32.855,NaN,NaN
20040726,011802,1136538,33.386833,-124.321833,18.729,32.856,NaN,NaN
20040726,011832,1136568,33.386833,-124.321667,18.728,32.855,NaN,NaN
20040726,011902,1136598,33.386667,-124.321667,18.727,32.856,NaN,NaN
20040726,011932,1136628,33.386667,-124.321667,18.727,32.855,NaN,NaN
20040726,012002,1136658,33.386667,-124.321667,18.728,32.855,NaN,NaN
20040726,012032,1136688,33.386667,-124.321667,18.729,32.855,NaN,NaN
20040726,012102,1136718,33.386500,-124.321500,18.729,32.856,NaN,NaN
20040726,012132,1136748,33.386500,-124.321500,18.730,32.856,NaN,NaN
20040726,012202,1136778,33.386500,-124.321500,18.731,32.856,NaN,NaN
20040726,012232,1136808,33.386333,-124.321500,18.732,32.855,NaN,NaN
20040726,012302,1136838,33.386167,-124.321333,18.733,32.855,NaN,NaN
20040726,012332,1136868,33.386000,-124.321167,18.734,32.855,NaN,NaN
20040726,012402,1136898,33.386000,-124.321167,18.733,32.856,NaN,NaN
20040726,012432,1136928,33.386000,-124.321167,18.731,32.855,NaN,NaN
20040726,012502,1136958,33.385833,-124.321000,18.733,32.855,NaN,NaN
20040726,012532,1136988,33.385833,-124.321000,18.734,32.856,NaN,NaN
20040726,012602,1137018,33.385833,-124.321000,18.734,32.856,NaN,NaN
20040726,012632,1137048,33.385833,-124.321000,18.734,32.856,NaN,NaN
20040726,012702,1137078,33.385833,-124.321000,18.733,32.855,NaN,NaN
20040726,012732,1137108,33.385833,-124.320833,18.733,32.856,NaN,NaN
20040726,012802,1137138,33.385833,-124.320833,18.734,32.856,NaN,NaN
20040726,012832,1137168,33.385667,-124.320833,18.735,32.855,NaN,NaN
20040726,012902,1137198,33.385500,-124.320833,18.739,32.856,NaN,NaN
20040726,012932,1137228,33.385500,-124.320833,18.740,32.855,NaN,NaN
20040726,013002,1137258,33.385333,-124.320833,18.750,32.856,NaN,NaN
20040726,013032,1137288,33.385333,-124.320833,18.742,32.856,NaN,NaN
20040726,013102,1137318,33.385333,-124.320833,18.737,32.856,NaN,NaN
20040726,013132,1137348,33.385333,-124.320833,18.736,32.855,NaN,NaN
20040726,013202,1137378,33.385333,-124.320833,18.736,32.855,NaN,NaN
20040726,013232,1137408,33.385500,-124.321000,18.736,32.855,NaN,NaN
20040726,013302,1137438,33.385500,-124.321167,18.737,32.855,NaN,NaN
20040726,013332,1137468,33.385500,-124.321333,18.737,32.856,NaN,NaN
20040726,013402,1137498,33.385333,-124.321333,18.738,32.855,NaN,NaN
20040726,013432,1137528,33.385333,-124.321500,18.738,32.856,NaN,NaN
20040726,013502,1137558,33.385167,-124.321667,18.738,32.856,NaN,NaN
20040726,013532,1137588,33.385000,-124.321833,18.737,32.856,NaN,NaN
20040726,013602,1137618,33.384833,-124.321833,18.738,32.856,NaN,NaN
20040726,013632,1137648,33.384667,-124.321833,18.737,32.856,NaN,NaN
20040726,013702,1137678,33.384333,-124.322167,18.735,32.856,NaN,NaN
20040726,013732,1137708,33.384167,-124.322500,18.736,32.856,NaN,NaN
20040726,013802,1137738,33.384167,-124.322667,18.736,32.856,NaN,NaN
20040726,013832,1137768,33.384000,-124.323000,18.735,32.857,NaN,NaN
20040726,013902,1137798,33.384000,-124.323167,18.735,32.857,NaN,NaN
20040726,013932,1137828,33.384000,-124.323333,18.734,32.856,NaN,NaN
20040726,014002,1137858,33.383833,-124.323500,18.734,32.857,NaN,NaN
20040726,014032,1137888,33.383833,-124.323833,18.733,32.857,NaN,NaN
20040726,014102,1137918,33.383833,-124.324000,18.731,32.857,NaN,NaN
20040726,014132,1137948,33.383833,-124.324333,18.729,32.857,NaN,NaN
20040726,014202,1137978,33.383833,-124.324500,18.728,32.857,NaN,NaN
20040726,014231,1138007,33.383833,-124.324833,18.729,32.857,NaN,NaN
20040726,014301,1138037,33.383833,-124.325000,18.729,32.857,NaN,NaN
20040726,014331,1138067,33.383833,-124.325333,18.729,32.857,NaN,NaN
20040726,014401,1138097,33.383833,-124.325500,18.731,32.857,NaN,NaN
20040726,014431,1138127,33.383833,-124.325667,18.731,32.858,NaN,NaN
20040726,014501,1138157,33.383833,-124.326000,18.731,32.857,NaN,NaN
20040726,014531,1138187,33.384000,-124.326167,18.732,32.857,NaN,NaN
20040726,014601,1138217,33.384000,-124.326333,18.732,32.858,NaN,NaN
20040726,014631,1138247,33.384000,-124.326500,18.732,32.858,NaN,NaN
20040726,014701,1138277,33.384000,-124.326833,18.731,32.858,NaN,NaN
20040726,014731,1138307,33.384000,-124.327000,18.732,32.857,NaN,NaN
20040726,014801,1138337,33.384000,-124.327167,18.732,32.858,NaN,NaN
20040726,014831,1138367,33.384000,-124.327500,18.732,32.858,NaN,NaN
20040726,014901,1138397,33.384000,-124.327667,18.731,32.858,NaN,NaN
20040726,014931,1138427,33.384000,-124.328000,18.731,32.857,NaN,NaN
20040726,015001,1138457,33.384000,-124.328167,18.730,32.858,NaN,NaN
20040726,015031,1138487,33.384000,-124.328333,18.729,32.858,NaN,NaN
20040726,015101,1138517,33.384000,-124.328500,18.730,32.858,NaN,NaN
20040726,015131,1138547,33.384167,-124.328833,18.730,32.858,NaN,NaN
20040726,015201,1138577,33.384167,-124.329000,18.731,32.858,NaN,NaN
20040726,015231,1138607,33.384167,-124.329167,18.733,32.858,NaN,NaN
20040726,015301,1138637,33.384167,-124.329500,18.734,32.859,NaN,NaN
20040726,015331,1138667,33.384167,-124.329667,18.734,32.858,NaN,NaN
20040726,015401,1138697,33.384167,-124.329833,18.735,32.858,NaN,NaN
20040726,015431,1138727,33.384167,-124.330000,18.736,32.858,NaN,NaN
20040726,015501,1138757,33.384167,-124.330333,18.735,32.859,NaN,NaN
20040726,015531,1138787,33.384000,-124.330500,18.734,32.859,NaN,NaN
20040726,015601,1138817,33.384000,-124.330667,18.734,32.858,NaN,NaN
20040726,015631,1138847,33.383833,-124.330667,18.732,32.859,NaN,NaN
20040726,015701,1138877,33.383667,-124.330833,18.733,32.858,NaN,NaN
20040726,015731,1138907,33.383667,-124.331000,18.733,32.858,NaN,NaN
20040726,015801,1138937,33.383500,-124.331167,18.731,32.859,NaN,NaN
20040726,015831,1138967,33.383333,-124.331333,18.731,32.859,NaN,NaN
20040726,015901,1138997,33.383333,-124.331667,18.731,32.859,NaN,NaN
20040726,015931,1139027,33.383333,-124.332000,18.729,32.859,NaN,NaN
20040726,020001,1139057,33.383333,-124.332500,18.728,32.859,NaN,NaN
20040726,020031,1139087,33.383333,-124.332833,18.727,32.859,NaN,NaN
20040726,020101,1139117,33.383333,-124.333000,18.727,32.859,NaN,NaN
20040726,020131,1139147,33.383333,-124.333333,18.726,32.859,NaN,NaN
20040726,020201,1139177,33.383333,-124.333500,18.725,32.859,NaN,NaN
20040726,020231,1139207,33.383167,-124.333667,18.722,32.860,NaN,NaN
20040726,020301,1139237,33.383167,-124.334000,18.724,32.859,NaN,NaN
20040726,020331,1139267,33.383167,-124.334167,18.725,32.859,NaN,NaN
20040726,020401,1139297,33.383167,-124.334333,18.725,32.860,NaN,NaN
20040726,020431,1139327,33.383000,-124.334667,18.725,32.860,NaN,NaN
20040726,020501,1139357,33.383000,-124.334833,18.725,32.860,NaN,NaN
20040726,020531,1139387,33.383000,-124.335167,18.726,32.860,NaN,NaN
20040726,020601,1139417,33.383000,-124.335500,18.727,32.860,NaN,NaN
20040726,020631,1139447,33.383000,-124.335667,18.726,32.860,NaN,NaN
20040726,020701,1139477,33.382833,-124.336000,18.725,32.861,NaN,NaN
20040726,020731,1139507,33.382833,-124.336333,18.725,32.860,NaN,NaN
20040726,020801,1139537,33.382833,-124.336500,18.725,32.860,NaN,NaN
20040726,020831,1139567,33.382833,-124.336833,18.722,32.861,NaN,NaN
20040726,020901,1139597,33.382667,-124.337167,18.719,32.861,NaN,NaN
20040726,020931,1139627,33.382667,-124.337333,18.719,32.860,NaN,NaN
20040726,021001,1139657,33.382667,-124.337667,18.720,32.861,NaN,NaN
20040726,021031,1139687,33.382667,-124.338000,18.720,32.862,NaN,NaN
20040726,021101,1139717,33.382500,-124.338333,18.719,32.862,NaN,NaN
20040726,021131,1139747,33.382500,-124.338667,18.718,32.861,NaN,NaN
20040726,021201,1139777,33.382500,-124.338833,18.717,32.862,NaN,NaN
20040726,021231,1139807,33.382333,-124.339167,18.716,32.862,NaN,NaN
20040726,021301,1139837,33.382333,-124.339500,18.715,32.861,NaN,NaN
20040726,021331,1139867,33.382167,-124.339667,18.715,32.861,NaN,NaN
20040726,021401,1139897,33.382167,-124.340000,18.716,32.861,NaN,NaN
20040726,021431,1139927,33.382000,-124.340167,18.716,32.861,NaN,NaN
20040726,021501,1139957,33.381833,-124.340500,18.716,32.861,NaN,NaN
20040726,021531,1139987,33.381833,-124.340667,18.717,32.861,NaN,NaN
20040726,021601,1140017,33.381667,-124.341000,18.717,32.862,NaN,NaN
20040726,021631,1140047,33.381500,-124.341167,18.718,32.861,NaN,NaN
20040726,021701,1140077,33.381500,-124.341500,18.718,32.861,NaN,NaN
20040726,021731,1140107,33.381333,-124.341667,18.719,32.862,NaN,NaN
20040726,021801,1140137,33.381167,-124.342000,18.720,32.862,NaN,NaN
20040726,021831,1140167,33.381000,-124.342167,18.720,32.862,NaN,NaN
20040726,021901,1140197,33.381000,-124.342500,18.720,32.862,NaN,NaN
20040726,021931,1140227,33.380833,-124.342667,18.720,32.862,NaN,NaN
20040726,022001,1140257,33.380667,-124.343000,18.720,32.862,NaN,NaN
20040726,022031,1140287,33.380500,-124.343167,18.720,32.862,NaN,NaN
20040726,022101,1140317,33.380333,-124.343333,18.719,32.862,NaN,NaN
20040726,022131,1140347,33.380167,-124.343667,18.718,32.863,NaN,NaN
20040726,022201,1140377,33.380000,-124.343833,18.718,32.862,NaN,NaN
20040726,022231,1140407,33.379833,-124.344167,18.718,32.863,NaN,NaN
20040726,022301,1140437,33.379667,-124.344500,18.717,32.863,NaN,NaN
20040726,022331,1140467,33.379667,-124.344667,18.718,32.862,NaN,NaN
20040726,022401,1140497,33.379500,-124.345000,18.718,32.863,NaN,NaN
20040726,022431,1140527,33.379333,-124.345167,18.718,32.863,NaN,NaN
20040726,022501,1140557,33.379167,-124.345500,18.720,32.862,NaN,NaN
20040726,022531,1140587,33.379000,-124.345667,18.721,32.863,NaN,NaN
20040726,022601,1140617,33.379000,-124.346000,18.721,32.863,NaN,NaN
20040726,022631,1140647,33.378833,-124.346333,18.721,32.863,NaN,NaN
20040726,022701,1140677,33.379000,-124.346667,18.721,32.864,NaN,NaN
20040726,022731,1140707,33.379333,-124.346833,18.722,32.863,NaN,NaN
20040726,022801,1140737,33.379667,-124.346500,18.721,32.864,NaN,NaN
20040726,022831,1140767,33.380167,-124.345667,18.720,32.863,NaN,NaN
20040726,022901,1140797,33.380833,-124.344833,18.717,32.863,NaN,NaN
20040726,022931,1140827,33.381500,-124.343500,18.716,32.863,NaN,NaN
20040726,023001,1140857,33.382000,-124.342333,18.717,32.862,NaN,NaN
20040726,023031,1140887,33.382500,-124.340833,18.720,32.862,NaN,NaN
20040726,023101,1140917,33.383167,-124.339500,18.724,32.861,NaN,NaN
20040726,023131,1140947,33.383667,-124.338167,18.722,32.861,NaN,NaN
20040726,023201,1140977,33.384333,-124.336833,18.725,32.860,NaN,NaN
20040726,023231,1141007,33.385000,-124.335500,18.730,32.860,NaN,NaN
20040726,023301,1141037,33.385500,-124.334000,18.730,32.860,NaN,NaN
20040726,023331,1141067,33.386167,-124.332667,18.734,32.858,NaN,NaN
20040726,023401,1141097,33.386833,-124.331333,18.735,32.858,NaN,NaN
20040726,023431,1141127,33.387333,-124.330000,18.736,32.858,NaN,NaN
20040726,023501,1141157,33.388000,-124.328667,18.743,32.857,NaN,NaN
20040726,023531,1141187,33.388667,-124.327333,18.748,32.856,NaN,NaN
20040726,023601,1141217,33.389333,-124.326000,18.750,32.854,NaN,NaN
20040726,023631,1141247,33.390000,-124.324667,18.758,32.852,NaN,NaN
20040726,023701,1141277,33.390667,-124.323333,18.755,32.849,NaN,NaN
20040726,023731,1141307,33.391333,-124.322000,18.756,32.847,NaN,NaN
20040726,023801,1141337,33.392000,-124.320667,18.771,32.844,NaN,NaN
20040726,023831,1141367,33.392667,-124.319333,18.771,32.838,NaN,NaN
20040726,023901,1141397,33.393333,-124.318000,18.766,32.835,NaN,NaN
20040726,023931,1141427,33.394000,-124.316667,18.769,32.831,NaN,NaN
20040726,024001,1141457,33.394667,-124.315333,18.771,32.827,NaN,NaN
20040726,024031,1141487,33.395333,-124.313833,18.771,32.825,NaN,NaN
20040726,024101,1141517,33.396000,-124.312667,18.782,32.820,NaN,NaN
20040726,024131,1141547,33.396667,-124.311333,18.784,32.815,NaN,NaN
20040726,024201,1141577,33.397333,-124.309833,18.781,32.813,NaN,NaN
20040726,024231,1141607,33.398000,-124.308667,18.782,32.811,NaN,NaN
20040726,024301,1141637,33.398667,-124.307333,18.786,32.808,NaN,NaN
20040726,024331,1141667,33.399333,-124.305833,18.786,32.806,NaN,NaN
20040726,024401,1141697,33.400000,-124.304500,18.788,32.804,NaN,NaN
20040726,024431,1141727,33.400667,-124.303167,18.782,32.802,NaN,NaN
20040726,024501,1141757,33.401333,-124.301833,18.776,32.801,NaN,NaN
20040726,024531,1141787,33.402000,-124.300500,18.773,32.800,NaN,NaN
20040726,024601,1141817,33.402667,-124.299167,18.780,32.797,NaN,NaN
20040726,024631,1141847,33.403333,-124.297833,18.783,32.795,NaN,NaN
20040726,024701,1141877,33.404000,-124.296333,18.779,32.791,NaN,NaN
20040726,024731,1141907,33.404667,-124.295000,18.774,32.789,NaN,NaN
20040726,024801,1141937,33.405333,-124.293500,18.774,32.787,NaN,NaN
20040726,024831,1141967,33.405833,-124.292167,18.771,32.784,NaN,NaN
20040726,024901,1141997,33.406500,-124.290833,18.766,32.781,NaN,NaN
20040726,024931,1142027,33.407167,-124.289333,18.761,32.780,NaN,NaN
20040726,025001,1142057,33.407833,-124.288000,18.757,32.779,NaN,NaN
20040726,025031,1142087,33.408500,-124.286500,18.757,32.777,NaN,NaN
20040726,025101,1142117,33.409167,-124.285167,18.756,32.771,NaN,NaN
20040726,025131,1142147,33.409833,-124.283833,18.746,32.768,NaN,NaN
20040726,025201,1142177,33.410500,-124.282333,18.738,32.767,NaN,NaN
20040726,025231,1142207,33.411167,-124.281000,18.733,32.768,NaN,NaN
20040726,025301,1142237,33.411667,-124.279500,18.729,32.768,NaN,NaN